Hourly Weather Goiana

Today, 2 December, Wednesday

Time Temperature Precipitation Wind Pressure Humidity
00:00 +27°C° 0.1 mm 2 mps 758 mmHg 85%
01:00 +26°C° 0.1 mm 2 mps 758 mmHg 87%
02:00 +26°C° 0.2 mm 2 mps 757 mmHg 87%
03:00 +26°C° 0.2 mm 2 mps 757 mmHg 88%
04:00 +26°C° 0 mm 2 mps 757 mmHg 87%
05:00 +26°C° 0.1 mm 2 mps 757 mmHg 85%
06:00 +27°C° 0.1 mm 2 mps 757 mmHg 84%
07:00 +27°C° 0.1 mm 2 mps 758 mmHg 82%
08:00 +29°C° 0.1 mm 3 mps 758 mmHg 75%
09:00 +30°C° 0.1 mm 3 mps 758 mmHg 68%
10:00 +33°C° 0 mm 4 mps 759 mmHg 60%
11:00 +33°C° 0.1 mm 4 mps 758 mmHg 59%
12:00 +33°C° 0.1 mm 4 mps 758 mmHg 58%
13:00 +34°C° 0.1 mm 5 mps 758 mmHg 56%
14:00 +33°C° 0.1 mm 5 mps 757 mmHg 58%
15:00 +33°C° 0.1 mm 5 mps 757 mmHg 60%
16:00 +33°C° 0.1 mm 5 mps 757 mmHg 61%
17:00 +30°C° 0 mm 4 mps 757 mmHg 67%
18:00 +29°C° 0 mm 4 mps 757 mmHg 72%
19:00 +28°C° 0 mm 3 mps 757 mmHg 78%
20:00 +28°C° 0 mm 3 mps 758 mmHg 80%
21:00 +28°C° 0 mm 3 mps 758 mmHg 82%
22:00 +27°C° 0 mm 2 mps 759 mmHg 84%
23:00 +27°C° 0.1 mm 2 mps 759 mmHg 85%

Tomorrow, 3 December, Thursday

Time Temperature Precipitation Wind Pressure Humidity
00:00 +27°C° 0.1 mm 2 mps 758 mmHg 86%
01:00 +27°C° 0.1 mm 1 mps 758 mmHg 87%
02:00 +26°C° 0.1 mm 1 mps 758 mmHg 88%
03:00 +26°C° 0.1 mm 1 mps 757 mmHg 88%
04:00 +26°C° 0.1 mm 1 mps 757 mmHg 89%
05:00 +26°C° 0 mm 1 mps 757 mmHg 86%
06:00 +27°C° 0 mm 1 mps 758 mmHg 84%
07:00 +27°C° 0 mm 1 mps 758 mmHg 82%
08:00 +29°C° 0.1 mm 2 mps 758 mmHg 75%
09:00 +30°C° 0.1 mm 3 mps 758 mmHg 67%
10:00 +33°C° 0.1 mm 4 mps 759 mmHg 60%
11:00 +33°C° 0.1 mm 4 mps 758 mmHg 59%
12:00 +33°C° 0.1 mm 5 mps 758 mmHg 58%
13:00 +34°C° 0.1 mm 5 mps 757 mmHg 56%
14:00 +33°C° 0 mm 5 mps 757 mmHg 58%
15:00 +33°C° 0 mm 5 mps 756 mmHg 60%
16:00 +33°C° 0 mm 5 mps 756 mmHg 62%
17:00 +32°C° 0 mm 4 mps 756 mmHg 68%
18:00 +29°C° 0 mm 4 mps 757 mmHg 73%
19:00 +28°C° 0 mm 3 mps 757 mmHg 79%
20:00 +28°C° 0.2 mm 3 mps 758 mmHg 81%
21:00 +28°C° 0.2 mm 3 mps 758 mmHg 83%
22:00 +27°C° 0.2 mm 2 mps 759 mmHg 85%
23:00 +27°C° 0.2 mm 2 mps 759 mmHg 85%

Day after tomorrow, 4 December, Friday

Time Temperature Precipitation Wind Pressure Humidity
00:00 +27°C° 0.2 mm 2 mps 759 mmHg 86%
01:00 +27°C° 0.2 mm 2 mps 758 mmHg 87%
02:00 +27°C° 0.1 mm 2 mps 758 mmHg 87%
03:00 +26°C° 0.1 mm 2 mps 758 mmHg 88%
04:00 +26°C° 0.1 mm 2 mps 757 mmHg 89%
05:00 +27°C° 0.1 mm 2 mps 758 mmHg 86%
06:00 +27°C° 0.1 mm 3 mps 759 mmHg 83%
07:00 +28°C° 0.1 mm 3 mps 759 mmHg 81%
08:00 +29°C° 0 mm 4 mps 759 mmHg 73%
09:00 +32°C° 0 mm 4 mps 760 mmHg 65%
10:00 +33°C° 0 mm 5 mps 760 mmHg 57%
11:00 +34°C° 0 mm 5 mps 760 mmHg 56%
12:00 +34°C° 0 mm 5 mps 759 mmHg 56%
13:00 +34°C° 0 mm 5 mps 759 mmHg 55%
14:00 +34°C° 0 mm 5 mps 758 mmHg 57%
15:00 +33°C° 0 mm 5 mps 758 mmHg 59%
16:00 +33°C° 0 mm 5 mps 757 mmHg 61%
17:00 +32°C° 0 mm 4 mps 757 mmHg 67%
18:00 +30°C° 0 mm 4 mps 757 mmHg 72%
19:00 +28°C° 0 mm 3 mps 758 mmHg 78%
20:00 +28°C° 0 mm 3 mps 758 mmHg 80%
21:00 +28°C° 0 mm 2 mps 758 mmHg 81%
22:00 +27°C° 0 mm 2 mps 759 mmHg 83%
23:00 +27°C° 0.1 mm 2 mps 758 mmHg 83%

5 December, Saturday

Time Temperature Precipitation Wind Pressure Humidity
00:00 +27°C° 0.1 mm 2 mps 758 mmHg 82%
01:00 +27°C° 0.1 mm 3 mps 757 mmHg 82%
02:00 +27°C° 0.1 mm 3 mps 757 mmHg 82%
03:00 +27°C° 0.1 mm 2 mps 757 mmHg 83%
04:00 +27°C° 0.1 mm 2 mps 757 mmHg 83%
05:00 +27°C° 0.1 mm 3 mps 757 mmHg 81%
06:00 +28°C° 0.1 mm 3 mps 758 mmHg 79%
07:00 +28°C° 0.1 mm 3 mps 758 mmHg 78%
08:00 +29°C° 0.1 mm 4 mps 758 mmHg 72%
09:00 +32°C° 0.1 mm 5 mps 759 mmHg 66%
10:00 +33°C° 0.1 mm 6 mps 759 mmHg 61%
11:00 +33°C° 0.1 mm 6 mps 758 mmHg 59%
12:00 +34°C° 0.1 mm 6 mps 758 mmHg 57%
13:00 +34°C° 0.1 mm 6 mps 758 mmHg 55%
14:00 +34°C° 0 mm 6 mps 757 mmHg 57%
15:00 +33°C° 0 mm 5 mps 757 mmHg 58%
16:00 +33°C° 0 mm 5 mps 757 mmHg 60%
17:00 +30°C° 0 mm 5 mps 757 mmHg 66%
18:00 +29°C° 0 mm 4 mps 757 mmHg 71%
19:00 +28°C° 0 mm 4 mps 757 mmHg 77%
20:00 +28°C° 0 mm 3 mps 758 mmHg 79%
21:00 +28°C° 0 mm 3 mps 758 mmHg 80%
22:00 +27°C° 0 mm 3 mps 758 mmHg 82%
23:00 +27°C° 0.1 mm 3 mps 758 mmHg 83%

6 December, Sunday

Time Temperature Precipitation Wind Pressure Humidity
00:00 +27°C° 0.1 mm 3 mps 758 mmHg 84%
01:00 +27°C° 0.1 mm 2 mps 757 mmHg 86%
02:00 +27°C° 0.1 mm 2 mps 757 mmHg 86%
03:00 +26°C° 0.1 mm 2 mps 757 mmHg 87%
04:00 +26°C° 0.1 mm 2 mps 757 mmHg 88%
05:00 +27°C° 0.1 mm 2 mps 757 mmHg 86%
06:00 +27°C° 0.1 mm 3 mps 757 mmHg 83%
07:00 +27°C° 0.1 mm 3 mps 758 mmHg 81%
08:00 +29°C° 0.1 mm 3 mps 758 mmHg 74%
09:00 +30°C° 0.1 mm 4 mps 758 mmHg 67%
10:00 +33°C° 0.1 mm 4 mps 759 mmHg 61%
11:00 +33°C° 0.1 mm 5 mps 758 mmHg 60%
12:00 +33°C° 0.1 mm 5 mps 758 mmHg 58%
13:00 +34°C° 0.1 mm 5 mps 757 mmHg 57%
14:00 +33°C° 0 mm 5 mps 757 mmHg 59%
15:00 +33°C° 0 mm 5 mps 757 mmHg 61%
16:00 +32°C° 0 mm 5 mps 756 mmHg 62%
17:00 +30°C° 0 mm 5 mps 757 mmHg 67%
18:00 +29°C° 0 mm 4 mps 757 mmHg 71%
19:00 +28°C° 0 mm 3 mps 758 mmHg 75%
20:00 +28°C° 0 mm 3 mps 758 mmHg 77%
21:00 +27°C° 0 mm 3 mps 758 mmHg 79%
22:00 +27°C° 0 mm 3 mps 758 mmHg 81%
23:00 +27°C° 0 mm 2 mps 758 mmHg 82%

7 December, Monday

Time Temperature Precipitation Wind Pressure Humidity
00:00 +26°C° 0 mm 2 mps 758 mmHg 83%
01:00 +26°C° 0 mm 2 mps 757 mmHg 85%
02:00 +26°C° 0.1 mm 2 mps 757 mmHg 86%
03:00 +26°C° 0.1 mm 2 mps 757 mmHg 86%
04:00 +26°C° 0.1 mm 2 mps 757 mmHg 87%
05:00 +27°C° 0.1 mm 2 mps 757 mmHg 85%
06:00 +27°C° 0.1 mm 3 mps 758 mmHg 83%
07:00 +27°C° 0.1 mm 3 mps 758 mmHg 82%
08:00 +29°C° 0 mm 4 mps 758 mmHg 74%
09:00 +30°C° 0 mm 4 mps 759 mmHg 66%
10:00 +32°C° 0 mm 5 mps 759 mmHg 59%
11:00 +33°C° 0 mm 5 mps 759 mmHg 57%
12:00 +33°C° 0 mm 5 mps 758 mmHg 55%
13:00 +34°C° 0 mm 5 mps 758 mmHg 54%
14:00 +33°C° 0 mm 5 mps 758 mmHg 55%
15:00 +33°C° 0 mm 5 mps 757 mmHg 56%
16:00 +33°C° 0 mm 5 mps 757 mmHg 57%
17:00 +30°C° 0 mm 4 mps 757 mmHg 63%
18:00 +29°C° 0 mm 4 mps 757 mmHg 69%
19:00 +28°C° 0 mm 3 mps 758 mmHg 74%
20:00 +28°C° 0 mm 3 mps 758 mmHg 77%
21:00 +28°C° 0 mm 3 mps 758 mmHg 79%
22:00 +27°C° 0 mm 2 mps 759 mmHg 81%
23:00 +27°C° 0.1 mm 2 mps 758 mmHg 83%
Show more

We Need Your Consent

Meteoprog and our Service Providers may store and access personal data such as cookies, device identifiers or other similar technologies on your device and process such data to personalise content and ads, as well as provide social media features and to analyse the traffic.

  • Store and/or access information on your device

    Cookies, device identifiers or other information can be stored or accessed on your device for the purposes indicated above.

  • Personalised ads and content, ad and content measurement, audience insights, and products development

    Ads and content can be personalised based on a profile. More data can be added to better personalise ads and content. Ad and content performance can be measured. Insights about the audience who saw the ads and content can be derived. Such data can be used to develop or improve user’s experience, systems and software.

By clicking ‘I Agree’ you will allow the use of indicated cookies, device identifiers, web beacons or other similar technologies. Your settings can be changed in the browser on your device.

For certain purposes, legitimate interests may be relied on, rather than consent. You can read more about this in our Privacy and Cookie Policy.